Date String (YYYY-MM-DD hh:mm:ss) UTC,Instrument flags,absolute air pressure of the measurement (hPa),sample flow rate (lpm),inlet stack bypass flow (lpm),air temperature of the measurement (°C),ambient temperature measured by the external sensor (°C),aerosol sample conditioner tube jacket temperature (°C),OPC LED temperature (°C),internal box temperature (°C),relative humidity of the measurement (%),span deviation,mass concentration of particles derived from Lorenz-Mie calculation of OPC scattering (μg/m³),mass concentration of particles derived from Lorenz-Mie calculation of OPC scattering (μg/m³),mass concentration of particles derived from Lorenz-Mie calculation of OPC scattering (μg/m³)
DateTimeUTC,F1_M11,P_M11,Q1_M11,Q2_M11,T1_M11,T2_M11,T3_M11,T4_M11,T5_M11,U1_M11,ZSPAN_M11,X0_M11,X2_M11,X1_M11
2023-06-29 08:00:00,SystemResetWarning,0831.0,5.00,000.00,029.3,027.8,000.0,037.9,030.9,30.4,0000.0,0015.55,0006.44,0005.23
2023-06-29 08:01:00,SystemResetWarning,0831.0,5.00,000.00,029.3,027.9,000.0,037.9,030.9,30.2,0000.0,0015.78,0006.38,0005.19
2023-06-29 08:02:00,SystemResetWarning,0831.0,4.99,000.00,029.4,028.0,000.0,037.9,031.0,30.2,0000.0,0015.57,0006.36,0005.16
2023-06-29 08:03:00,SystemResetWarning,0831.0,5.00,000.00,029.4,028.1,000.0,037.9,031.0,29.8,0000.0,0014.97,0006.33,0005.13
2023-06-29 08:04:00,SystemResetWarning,0830.9,5.00,000.00,029.4,028.2,000.0,037.9,031.1,29.6,0000.0,0014.93,0006.30,0005.10
2023-06-29 08:05:00,SystemResetWarning,0831.0,5.00,000.00,029.5,028.3,000.0,037.9,031.1,29.7,0000.0,0014.51,0006.24,0005.06
2023-06-29 08:06:00,SystemResetWarning,0831.0,5.00,000.00,029.5,028.4,000.0,038.0,031.1,29.8,0000.0,0013.93,0006.24,0005.05
2023-06-29 08:07:00,SystemResetWarning,0831.0,5.00,000.00,029.5,028.4,000.0,038.0,031.2,29.7,0000.0,0013.90,0006.28,0005.05
2023-06-29 08:08:00,SystemResetWarning,0831.0,5.00,000.00,029.6,028.5,000.0,038.0,031.2,29.4,0000.0,0014.05,0006.24,0005.03
2023-06-29 08:09:00,SystemResetWarning,0831.0,5.00,000.00,029.6,028.5,000.0,038.0,031.2,29.6,0000.0,0014.32,0006.28,0005.01
2023-06-29 08:10:00,SystemResetWarning,0831.0,5.00,000.00,029.6,028.6,000.0,038.1,031.2,29.5,0000.0,0014.30,0006.28,0004.99
2023-06-29 08:11:00,SystemResetWarning,0831.0,4.99,000.00,029.6,027.8,000.0,038.0,031.2,29.3,0000.1,0013.79,0006.28,0004.96
2023-06-29 08:12:00,SystemResetWarning,0831.0,4.99,000.00,029.6,026.0,000.0,037.9,031.0,29.6,-000.1,0012.95,0006.24,0004.94
2023-06-29 08:13:00,SystemResetWarning,0830.9,5.01,000.00,029.5,025.3,000.0,037.8,030.8,29.7,-000.3,0012.27,0006.21,0004.93
2023-06-29 08:14:00,SystemResetWarning,0831.0,5.01,000.00,029.4,025.5,000.0,037.9,030.6,29.7,-000.6,0011.83,0006.12,0004.91
2023-06-29 08:15:00,SystemResetWarning,0831.0,4.99,000.00,029.3,025.9,000.0,037.9,030.6,29.7,-001.3,0011.68,0006.07,0004.89
2023-06-29 08:16:00,SystemResetWarning,0831.1,5.00,000.00,029.3,026.3,000.0,037.9,030.6,29.8,-000.1,0011.73,0006.07,0004.87
2023-06-29 08:17:00,SystemResetWarning,0831.1,5.00,000.00,029.3,026.6,000.0,037.9,030.7,29.9,0000.0,0011.66,0006.02,0004.86
2023-06-29 08:18:00,SystemResetWarning,0831.2,5.00,000.00,029.3,027.0,000.0,037.9,030.8,29.9,-002.5,0011.70,0006.03,0004.84
2023-06-29 08:19:00,SystemResetWarning,0831.2,5.00,000.00,029.3,027.2,000.0,037.9,030.8,29.9,-002.8,0011.85,0006.03,0004.84
2023-06-29 08:20:00,SystemResetWarning,0831.1,5.00,000.00,029.3,027.5,000.0,037.9,030.9,30.0,-000.3,0012.10,0005.99,0004.84
2023-06-29 08:21:00,SystemResetWarning,0831.1,5.00,000.00,029.3,027.7,000.0,037.9,030.9,29.8,-000.1,0012.38,0005.95,0004.82
2023-06-29 08:22:00,SystemResetWarning,0831.1,5.00,000.00,029.4,027.8,000.0,037.9,030.9,29.9,-001.2,0012.51,0005.91,0004.82
2023-06-29 08:23:00,SystemResetWarning,0831.1,5.02,000.00,029.4,028.0,000.0,037.9,031.0,29.9,-001.0,0012.50,0005.87,0004.82
2023-06-29 08:24:00,SystemResetWarning,0831.2,4.98,000.00,029.4,028.1,000.0,037.9,031.0,29.8,-000.7,0012.91,0005.84,0004.81
2023-06-29 08:25:00,SystemResetWarning,0831.2,5.01,000.00,029.4,028.2,000.0,037.9,031.1,29.8,0000.0,0012.91,0005.85,0004.80
2023-06-29 08:26:00,SystemResetWarning,0831.2,5.01,000.00,029.5,028.3,000.0,038.0,031.1,29.8,0000.1,0012.78,0005.85,0004.80
2023-06-29 08:27:00,SystemResetWarning,0831.2,5.00,000.00,029.5,028.3,000.0,038.0,031.1,30.0,0000.8,0012.93,0005.88,0004.81
2023-06-29 08:28:00,SystemResetWarning,0831.3,5.00,000.00,029.5,028.4,000.0,038.0,031.1,30.0,0000.0,0013.19,0005.86,0004.80
2023-06-29 08:29:00,SystemResetWarning,0831.3,5.00,000.00,029.6,028.4,000.0,038.0,031.2,29.9,0000.0,0014.03,0005.81,0004.79
2023-06-29 08:30:00,SystemResetWarning,0831.3,5.00,000.00,029.6,028.5,000.0,038.0,031.2,29.8,0000.0,0013.80,0005.82,0004.79
2023-06-29 08:31:00,SystemResetWarning,0831.3,5.00,000.00,029.6,028.5,000.0,038.1,031.2,30.1,0000.3,0013.32,0005.81,0004.77
2023-06-29 08:32:00,SystemResetWarning,0831.3,5.00,000.00,029.6,028.6,000.0,038.1,031.3,30.0,0000.9,0013.65,0005.83,0004.76
2023-06-29 08:33:00,SystemResetWarning,0831.3,4.99,000.00,029.7,028.3,000.0,038.1,031.3,30.1,0000.0,0013.64,0005.88,0004.76
2023-06-29 08:34:00,SystemResetWarning,0831.3,4.99,000.00,029.7,026.6,000.0,038.0,031.1,30.0,0000.0,0013.85,0005.94,0004.76
2023-06-29 08:35:00,SystemResetWarning,0831.3,5.00,000.00,029.6,025.5,000.0,037.9,030.9,30.1,0000.0,0013.76,0006.02,0004.77
2023-06-29 08:36:00,SystemResetWarning,0831.3,5.00,000.00,029.4,025.4,000.0,037.9,030.5,30.5,0000.0,0014.52,0006.07,0004.78
2023-06-29 08:37:00,SystemResetWarning,0831.3,5.01,000.00,029.3,025.7,000.0,037.9,030.5,30.8,0000.0,0015.36,0006.11,0004.80
2023-06-29 08:38:00,SystemResetWarning,0831.3,5.01,000.00,029.3,026.1,000.0,037.9,030.6,31.0,0000.0,0015.51,0006.15,0004.80
2023-06-29 08:39:00,SystemResetWarning,0831.3,5.00,000.00,029.3,026.5,000.0,037.9,030.7,31.1,0000.0,0015.44,0006.18,0004.81
2023-06-29 08:40:00,SystemResetWarning,0831.3,5.00,000.00,029.3,026.8,000.0,037.9,030.7,31.1,0000.0,0014.82,0006.26,0004.84
2023-06-29 08:41:00,SystemResetWarning,0831.3,5.00,000.00,029.3,027.1,000.0,037.9,030.8,31.1,0000.0,0014.90,0006.30,0004.86
2023-06-29 08:42:00,SystemResetWarning,0831.4,4.99,000.00,029.3,027.4,000.0,037.9,030.8,31.3,0000.0,0014.89,0006.34,0004.89
2023-06-29 08:43:00,SystemResetWarning,0831.3,5.00,000.00,029.3,027.6,000.0,037.9,030.9,31.2,0000.0,0014.31,0006.34,0004.92
2023-06-29 08:44:00,SystemResetWarning,0831.3,5.00,000.00,029.3,027.7,000.0,037.9,030.9,31.3,0000.0,0014.01,0006.34,0004.94
2023-06-29 08:45:00,SystemResetWarning,0831.4,5.00,000.00,029.4,027.9,000.0,037.9,030.9,31.2,0000.0,0014.22,0006.32,0004.94
2023-06-29 08:46:00,SystemResetWarning,0831.4,5.00,000.00,029.4,028.0,000.0,037.9,031.0,31.2,0000.0,0014.41,0006.29,0004.94
2023-06-29 08:47:00,SystemResetWarning,0831.4,5.00,000.00,029.4,028.1,000.0,037.9,031.0,31.2,0000.0,0013.70,0006.23,0004.93
2023-06-29 08:48:00,SystemResetWarning,0831.4,5.00,000.00,029.5,028.2,000.0,038.0,031.1,31.3,0000.0,0013.10,0006.18,0004.91
2023-06-29 08:49:00,SystemResetWarning,0831.4,5.01,000.00,029.5,028.3,000.0,038.0,031.1,31.4,0000.0,0012.72,0006.10,0004.90
2023-06-29 08:50:00,SystemResetWarning,0831.4,5.01,000.00,029.5,028.3,000.0,038.0,031.1,31.4,0000.0,0012.30,0006.05,0004.88
2023-06-29 08:51:00,SystemResetWarning,0831.4,4.99,000.00,029.5,028.4,000.0,038.0,031.2,31.5,-002.7,0012.13,0005.97,0004.84
2023-06-29 08:52:00,SystemResetWarning,0831.4,4.99,000.00,029.6,028.5,000.0,038.0,031.2,31.4,-001.2,0011.78,0005.91,0004.83
2023-06-29 08:53:00,SystemResetWarning,0831.5,4.99,000.00,029.6,028.5,000.0,038.0,031.2,31.3,-001.9,0011.76,0005.84,0004.78
2023-06-29 08:54:00,SystemResetWarning,0831.5,5.01,000.00,029.6,028.5,000.0,038.1,031.2,31.2,-001.6,0011.95,0005.81,0004.75
2023-06-29 08:55:00,SystemResetWarning,0831.5,5.01,000.00,029.7,028.6,000.0,038.1,031.3,31.2,-002.3,0013.18,0005.79,0004.73
2023-06-29 08:56:00,SystemResetWarning,0831.5,5.01,000.00,029.7,028.6,000.0,038.1,031.3,31.2,-001.1,0012.81,0005.78,0004.71
2023-06-29 08:57:00,SystemResetWarning,0831.5,5.00,000.00,029.7,028.7,000.0,038.1,031.3,31.1,-000.9,0012.37,0005.75,0004.69
2023-06-29 08:58:00,SystemResetWarning,0831.6,4.98,000.00,029.7,027.7,000.0,038.1,031.2,31.1,-000.4,0012.18,0005.72,0004.67
2023-06-29 08:59:00,SystemResetWarning,0831.6,5.00,000.00,029.7,025.9,000.0,038.0,031.0,31.3,0000.1,0011.93,0005.74,0004.68
